Location: Huisseau
(47.5933°N, 1.4533°E)
Time: 19:15:56
(UTC+00:00)

CENTAUR R/B - Pass Details

Date: 22 November 2025
Orbit: 633 x 1547 km, 63.4° (Epoch: 06 December)

Event Time Altitude Azimuth Distance (km) Brightness Sun altitude
Exits shadow 03:30:19 79° 29° (NNE) 1,462 3.2 -36.5°
Maximum altitude 03:30:34 79° 48° (NE) 1,463 3.2 -36.4°
Drops below altitude 10° 03:40:00 10° 136° (SE) 3,710 5.9 -34.9°
Sets 03:43:07 0° 137° (SE) 4,703 6.5 -34.4°
